| time (UTC) | temp C | wind direction | speed KPH | gust KPH | rain 1hr cm | rain 24hr cm | rain mn cm | humidity % | barometer mb |
| 20260507070504 | 4 | 321 | 3.2 | 8.0 | 0.00 | 1.22 | 0.00 | 81 | 1011.6 |
| 20260507070014 | 4 | 321 | 3.2 | 6.4 | 0.00 | 1.22 | 0.00 | 81 | 1011.7 |
| 20260507065507 | 4 | 347 | 3.2 | 6.4 | 0.00 | 1.22 | 0.00 | 81 | 1011.7 |
| 20260507065002 | 4 | 335 | 3.2 | 8.0 | 0.00 | 1.22 | 0.00 | 81 | 1011.8 |
| 20260507064513 | 5 | 321 | 3.2 | 8.0 | 0.00 | 1.22 | 0.00 | 81 | 1011.8 |
| 20260507064006 | 5 | 349 | 3.2 | 9.7 | 0.00 | 1.22 | 0.00 | 82 | 1011.9 |
| 20260507063504 | 5 | 335 | 4.8 | 9.7 | 0.00 | 1.22 | 0.00 | 82 | 1011.8 |
| 20260507063010 | 5 | 306 | 3.2 | 11.3 | 0.00 | 1.22 | 0.00 | 83 | 1011.8 |
| 20260507062506 | 5 | 325 | 4.8 | 11.3 | 0.00 | 1.22 | 0.00 | 83 | 1011.8 |
| 20260507062007 | 5 | 319 | 4.8 | 11.3 | 0.00 | 1.22 | 0.00 | 83 | 1011.8 |
| 20260507061509 | 5 | 311 | 6.4 | 9.7 | 0.00 | 1.22 | 0.00 | 83 | 1011.9 |
| 20260507061009 | 5 | 301 | 6.4 | 11.3 | 0.00 | 1.22 | 0.00 | 84 | 1011.8 |
| 20260507060504 | 5 | 333 | 6.4 | 11.3 | 0.00 | 1.22 | 0.00 | 84 | 1011.9 |
| 20260507060015 | 5 | 325 | 3.2 | 11.3 | 0.00 | 1.22 | 0.00 | 85 | 1011.9 |
| 20260507055504 | 5 | 352 | 6.4 | 14.5 | 0.00 | 1.22 | 0.00 | 85 | 1011.9 |
| 20260507055004 | 5 | 331 | 6.4 | 14.5 | 0.00 | 1.22 | 0.00 | 85 | 1011.8 |
| 20260507054516 | 5 | 328 | 6.4 | 14.5 | 0.00 | 1.22 | 0.00 | 85 | 1011.7 |
| 20260507054005 | 5 | 332 | 8.0 | 12.9 | 0.00 | 1.22 | 0.00 | 86 | 1011.7 |
| 20260507053504 | 5 | 334 | 8.0 | 11.3 | 0.00 | 1.22 | 0.00 | 86 | 1011.6 |
| 20260507053022 | 5 | 333 | 4.8 | 11.3 | 0.00 | 1.22 | 0.00 | 86 | 1011.6 |
| 20260507052506 | 5 | 342 | 1.6 | 9.7 | 0.00 | 1.22 | 0.00 | 85 | 1011.7 |
| 20260507052006 | 5 | 330 | 3.2 | 17.7 | 0.00 | 1.22 | 0.00 | 85 | 1012.1 |
| 20260507051518 | 5 | 333 | 4.8 | 17.7 | 0.00 | 1.22 | 0.00 | 85 | 1012.1 |
| 20260507051006 | 5 | 334 | 8.0 | 17.7 | 0.00 | 1.22 | 0.00 | 85 | 1012.1 |
| 20260507050508 | 5 | 302 | 6.4 | 12.9 | 0.00 | 1.22 | 0.00 | 85 | 1012.0 |
| 20260507050017 | 5 | 309 | 6.4 | 12.9 | 0.00 | 1.22 | 0.00 | 85 | 1011.9 |
| 20260507045506 | 5 | 321 | 4.8 | 12.9 | 0.00 | 1.22 | 0.00 | 85 | 1011.7 |
| 20260507045005 | 5 | 344 | 3.2 | 11.3 | 0.00 | 1.22 | 0.00 | 86 | 1011.7 |
| 20260507044511 | 6 | 293 | 6.4 | 11.3 | 0.00 | 1.22 | 0.00 | 87 | 1011.7 |
| 20260507044008 | 5 | 1 | 4.8 | 11.3 | 0.00 | 1.22 | 0.00 | 88 | 1011.8 |
| 20260507043506 | 6 | 349 | 3.2 | 17.7 | 0.00 | 1.22 | 0.00 | 88 | 1011.6 |
| 20260507043017 | 6 | 333 | 4.8 | 17.7 | 0.00 | 1.22 | 0.00 | 88 | 1011.7 |
| 20260507042503 | 6 | 330 | 4.8 | 12.9 | 0.00 | 1.22 | 0.00 | 88 | 1011.7 |
| 20260507042008 | 6 | 273 | 4.8 | 16.1 | 0.00 | 1.22 | 0.00 | 88 | 1011.6 |
| 20260507041518 | 6 | 338 | 4.8 | 17.7 | 0.00 | 1.22 | 0.00 | 88 | 1011.5 |
| 20260507041005 | 6 | 353 | 8.0 | 22.5 | 0.00 | 1.22 | 0.00 | 88 | 1011.5 |
| 20260507040505 | 6 | 342 | 11.3 | 22.5 | 0.00 | 1.22 | 0.00 | 88 | 1011.3 |
| 20260507040020 | 6 | 330 | 12.9 | 22.5 | 0.00 | 1.22 | 0.00 | 88 | 1011.2 |
| 20260507035503 | 6 | 327 | 6.4 | 19.3 | 0.00 | 1.22 | 1.22 | 89 | 1011.0 |
| 20260507035008 | 6 | 300 | 6.4 | 14.5 | 0.00 | 1.22 | 1.22 | 89 | 1010.8 |
| 20260507034532 | 6 | 359 | 8.0 | 14.5 | 0.00 | 1.22 | 1.22 | 89 | 1010.5 |
| 20260507034004 | 6 | 341 | 8.0 | 14.5 | 0.00 | 1.22 | 1.22 | 89 | 1010.8 |
| 20260507033502 | 6 | 323 | 6.4 | 11.3 | 0.00 | 1.22 | 1.22 | 89 | 1010.8 |
| 20260507033020 | 6 | 342 | 4.8 | 11.3 | 0.00 | 1.22 | 1.22 | 90 | 1010.8 |
| 20260507032504 | 6 | 326 | 6.4 | 11.3 | 0.00 | 1.22 | 1.22 | 91 | 1010.9 |
| 20260507032006 | 6 | 294 | 3.2 | 9.7 | 0.00 | 1.22 | 1.22 | 93 | 1010.9 |
| 20260507031525 | 6 | 335 | 4.8 | 8.0 | 0.00 | 1.22 | 1.22 | 94 | 1010.9 |
| 20260507031012 | 6 | 352 | 3.2 | 4.8 | 0.00 | 1.22 | 1.22 | 94 | 1010.9 |
| 20260507030509 | 6 | 210 | 1.6 | 4.8 | 0.00 | 1.22 | 1.22 | 94 | 1011.0 |
| 20260507030024 | 6 | 197 | 3.2 | 4.8 | 0.00 | 1.22 | 1.22 | 94 | 1011.2 |
| 20260507025506 | 6 | 197 | 3.2 | 3.2 | 0.00 | 1.22 | 1.22 | 93 | 1011.0 |
| 20260507025011 | 6 | 197 | 1.6 | 4.8 | 0.00 | 1.22 | 1.22 | 93 | 1010.9 |
| 20260507024520 | 6 | 197 | 1.6 | 6.4 | 0.00 | 1.22 | 1.22 | 93 | 1010.9 |
| 20260507024006 | 6 | 204 | 1.6 | 6.4 | 0.00 | 1.22 | 1.22 | 93 | 1010.9 |
| 20260507023509 | 6 | 210 | 3.2 | 8.0 | 0.00 | 1.22 | 1.22 | 93 | 1011.0 |
| 20260507023021 | 6 | 225 | 4.8 | 8.0 | 0.00 | 1.22 | 1.22 | 93 | 1011.1 |
| 20260507022512 | 6 | 193 | 4.8 | 4.8 | 0.00 | 1.22 | 1.22 | 93 | 1011.1 |
| 20260507022004 | 6 | 196 | 1.6 | 3.2 | 0.00 | 1.22 | 1.22 | 93 | 1010.9 |
| 20260507021523 | 6 | 196 | 1.6 | 4.8 | 0.00 | 1.22 | 1.22 | 93 | 1011.0 |
| 20260507021012 | 6 | 196 | 0.0 | 4.8 | 0.00 | 1.22 | 1.22 | 93 | 1011.1 |
| 20260507020505 | 6 | 196 | 1.6 | 4.8 | 0.00 | 1.22 | 1.22 | 93 | 1011.1 |
| 20260507020021 | 6 | 190 | 3.2 | 3.2 | 0.00 | 1.22 | 1.22 | 93 | 1011.2 |
| 20260507015510 | 6 | 168 | 0.0 | 3.2 | 0.00 | 1.22 | 1.22 | 93 | 1011.2 |
| 20260507015009 | 6 | 168 | 0.0 | 3.2 | 0.00 | 1.22 | 1.22 | 93 | 1011.1 |
| 20260507014524 | 6 | 168 | 1.6 | 3.2 | 0.00 | 1.22 | 1.22 | 93 | 1011.3 |
| 20260507014007 | 6 | 168 | 0.0 | 3.2 | 0.00 | 1.22 | 1.22 | 93 | 1011.2 |
| 20260507013507 | 6 | 168 | 1.6 | 3.2 | 0.00 | 1.22 | 1.22 | 93 | 1011.4 |
| 20260507013016 | 6 | 168 | 1.6 | 3.2 | 0.00 | 1.22 | 1.22 | 93 | 1011.4 |
| 20260507012507 | 6 | 167 | 3.2 | 3.2 | 0.00 | 1.22 | 1.22 | 93 | 1011.4 |
| 20260507012007 | 6 | 136 | 1.6 | 3.2 | 0.00 | 1.22 | 1.22 | 93 | 1011.2 |
| 20260507011523 | 6 | 136 | 1.6 | 3.2 | 0.00 | 1.22 | 1.22 | 93 | 1011.2 |
| 20260507011006 | 6 | 134 | 0.0 | 0.0 | 0.00 | 1.22 | 1.22 | 93 | 1011.1 |
| 20260507010509 | 6 | 134 | 0.0 | 0.0 | 0.00 | 1.22 | 1.22 | 93 | 1011.2 |
| 20260507010031 | 6 | 134 | 0.0 | 0.0 | 0.00 | 1.22 | 1.22 | 93 | 1011.1 |
| 20260507005508 | 6 | 134 | 0.0 | 0.0 | 0.00 | 1.22 | 1.22 | 93 | 1011.1 |
| 20260507005004 | 6 | 134 | 0.0 | 0.0 | 0.00 | 1.22 | 1.22 | 93 | 1010.9 |
| 20260507004524 | 6 | 134 | 0.0 | 3.2 | 0.00 | 1.22 | 1.22 | 93 | 1010.8 |
| 20260507004007 | 6 | 134 | 0.0 | 3.2 | 0.00 | 1.22 | 1.22 | 93 | 1010.9 |
| 20260507003505 | 6 | 134 | 0.0 | 3.2 | 0.00 | 1.22 | 1.22 | 93 | 1010.9 |
| 20260507003024 | 6 | 134 | 0.0 | 3.2 | 0.00 | 1.22 | 1.22 | 93 | 1010.8 |
| 20260507002508 | 6 | 134 | 0.0 | 1.6 | 0.00 | 1.22 | 1.22 | 93 | 1010.9 |
| 20260507002012 | 6 | 134 | 1.6 | 4.8 | 0.00 | 1.22 | 1.22 | 93 | 1010.7 |
| 20260507001523 | 6 | 134 | 0.0 | 4.8 | 0.00 | 1.22 | 1.22 | 93 | 1010.8 |
| 20260507001007 | 6 | 153 | 0.0 | 3.2 | 0.00 | 1.22 | 1.22 | 93 | 1010.9 |
| 20260507000512 | 6 | 152 | 1.6 | 3.2 | 0.00 | 1.22 | 1.22 | 92 | 1010.9 |
| 20260507000016 | 6 | 84 | 0.0 | 3.2 | 0.00 | 1.22 | 1.22 | 92 | 1010.7 |
| 20260506235507 | 6 | 83 | 1.6 | 3.2 | 0.00 | 1.22 | 1.22 | 92 | 1010.7 |
| 20260506235009 | 6 | 14 | 0.0 | 3.2 | 0.00 | 1.22 | 1.22 | 92 | 1010.7 |
| 20260506234543 | 6 | 357 | 0.0 | 3.2 | 0.00 | 1.22 | 1.22 | 92 | 1010.7 |
| 20260506234010 | 6 | 350 | 0.0 | 1.6 | 0.00 | 1.22 | 1.22 | 92 | 1010.7 |
| 20260506233504 | 6 | 350 | 0.0 | 3.2 | 0.00 | 1.22 | 1.22 | 92 | 1010.7 |
| 20260506233012 | 6 | 349 | 0.0 | 3.2 | 0.00 | 1.22 | 1.22 | 92 | 1010.6 |
| 20260506232503 | 6 | 350 | 0.0 | 3.2 | 0.00 | 1.22 | 1.22 | 92 | 1010.4 |
| 20260506232000 | 6 | 350 | 0.0 | 0.0 | 0.00 | 1.24 | 1.22 | 92 | 1010.3 |
| 20260506231507 | 6 | 348 | 0.0 | 0.0 | 0.00 | 1.24 | 1.22 | 92 | 1010.3 |
| 20260506231004 | 6 | 348 | 0.0 | 0.0 | 0.00 | 1.24 | 1.22 | 92 | 1010.3 |
| 20260506230504 | 6 | 348 | 0.0 | 1.6 | 0.00 | 1.24 | 1.22 | 92 | 1010.1 |
| 20260506230004 | 6 | 348 | 0.0 | 3.2 | 0.00 | 1.24 | 1.22 | 92 | 1010.2 |
| 20260506225504 | 6 | 348 | 0.0 | 3.2 | 0.00 | 1.24 | 1.22 | 92 | 1010.3 |
| 20260506225007 | 6 | 348 | 0.0 | 3.2 | 0.00 | 1.24 | 1.22 | 92 | 1010.2 |
| 20260506224516 | 6 | 348 | 0.0 | 6.4 | 0.00 | 1.30 | 1.22 | 92 | 1009.9 |
| 20260506224004 | 6 | 348 | 0.0 | 6.4 | 0.00 | 1.32 | 1.22 | 92 | 1009.8 |
| 20260506223506 | 6 | 342 | 1.6 | 6.4 | 0.00 | 1.40 | 1.22 | 92 | 1009.8 |
| 20260506223022 | 6 | 344 | 3.2 | 9.7 | 0.00 | 1.47 | 1.22 | 92 | 1010.0 |
| 20260506222504 | 6 | 326 | 6.4 | 11.3 | 0.00 | 1.47 | 1.22 | 92 | 1009.8 |
| 20260506222008 | 6 | 340 | 6.4 | 11.3 | 0.00 | 1.55 | 1.22 | 92 | 1009.8 |
| 20260506221517 | 6 | 323 | 6.4 | 11.3 | 0.00 | 1.55 | 1.22 | 91 | 1010.0 |
| 20260506221007 | 6 | 359 | 6.4 | 12.9 | 0.00 | 1.55 | 1.22 | 92 | 1010.0 |
| 20260506220504 | 6 | 348 | 4.8 | 12.9 | 0.00 | 1.55 | 1.22 | 91 | 1010.1 |
| 20260506220029 | 6 | 330 | 6.4 | 9.7 | 0.00 | 1.55 | 1.22 | 91 | 1010.2 |
| 20260506215507 | 6 | 355 | 3.2 | 8.0 | 0.00 | 1.55 | 1.22 | 92 | 1010.3 |
| 20260506215001 | 6 | 355 | 1.6 | 8.0 | 0.00 | 1.55 | 1.22 | 92 | 1010.2 |
| 20260506214511 | 6 | 349 | 4.8 | 12.9 | 0.00 | 1.55 | 1.22 | 92 | 1009.8 |
| 20260506214004 | 6 | 336 | 4.8 | 12.9 | 0.00 | 1.55 | 1.22 | 92 | 1009.9 |
| 20260506213508 | 6 | 342 | 6.4 | 12.9 | 0.00 | 1.55 | 1.22 | 92 | 1010.0 |
| 20260506213008 | 6 | 326 | 6.4 | 12.9 | 0.00 | 1.55 | 1.22 | 92 | 1010.0 |
| 20260506212505 | 6 | 317 | 6.4 | 12.9 | 0.00 | 1.55 | 1.22 | 92 | 1009.8 |
| 20260506212009 | 6 | 356 | 6.4 | 12.9 | 0.00 | 1.55 | 1.22 | 92 | 1009.8 |
| 20260506211511 | 6 | 334 | 4.8 | 12.9 | 0.00 | 1.55 | 1.22 | 92 | 1009.9 |
| 20260506211004 | 6 | 342 | 6.4 | 12.9 | 0.00 | 1.55 | 1.22 | 93 | 1009.7 |
| 20260506210505 | 6 | 341 | 8.0 | 12.9 | 0.00 | 1.55 | 1.22 | 93 | 1009.7 |
| 20260506210023 | 6 | 330 | 8.0 | 16.1 | 0.00 | 1.55 | 1.22 | 93 | 1009.8 |
| 20260506205504 | 6 | 33 | 6.4 | 16.1 | 0.00 | 1.55 | 1.22 | 93 | 1009.8 |
| 20260506205006 | 6 | 338 | 9.7 | 16.1 | 0.00 | 1.55 | 1.22 | 93 | 1009.7 |
| 20260506204520 | 6 | 354 | 6.4 | 17.7 | 0.00 | 1.55 | 1.22 | 93 | 1009.5 |
| 20260506204004 | 6 | 329 | 8.0 | 17.7 | 0.00 | 1.55 | 1.22 | 93 | 1009.3 |
| 20260506203506 | 6 | 327 | 8.0 | 20.9 | 0.00 | 1.55 | 1.22 | 93 | 1009.3 |
| 20260506203019 | 6 | 4 | 6.4 | 20.9 | 0.00 | 1.55 | 1.22 | 93 | 1009.2 |
| 20260506202508 | 6 | 19 | 8.0 | 19.3 | 0.00 | 1.55 | 1.22 | 92 | 1009.1 |
| 20260506202003 | 6 | 1 | 11.3 | 19.3 | 0.00 | 1.55 | 1.22 | 93 | 1009.1 |
| 20260506201515 | 6 | 6 | 6.4 | 16.1 | 0.00 | 1.55 | 1.22 | 93 | 1009.1 |
| 20260506201005 | 6 | 359 | 8.0 | 22.5 | 0.00 | 1.55 | 1.22 | 93 | 1009.0 |
| 20260506200501 | 6 | 348 | 11.3 | 22.5 | 0.00 | 1.55 | 1.22 | 93 | 1008.9 |
| 20260506200011 | 6 | 339 | 14.5 | 20.9 | 0.00 | 1.55 | 1.22 | 93 | 1009.0 |
| 20260506195504 | 6 | 302 | 11.3 | 20.9 | 0.03 | 1.55 | 1.22 | 93 | 1009.0 |
| 20260506195011 | 6 | 4 | 8.0 | 17.7 | 0.03 | 1.55 | 1.22 | 93 | 1008.9 |
| 20260506194508 | 6 | 356 | 4.8 | 14.5 | 0.03 | 1.55 | 1.22 | 93 | 1008.7 |
| 20260506194011 | 6 | 348 | 6.4 | 19.3 | 0.03 | 1.55 | 1.22 | 93 | 1008.6 |
| 20260506193508 | 6 | 342 | 8.0 | 22.5 | 0.03 | 1.55 | 1.22 | 93 | 1008.6 |
| 20260506193027 | 6 | 347 | 9.7 | 22.5 | 0.03 | 1.55 | 1.22 | 92 | 1008.6 |
| 20260506192504 | 6 | 316 | 6.4 | 17.7 | 0.03 | 1.55 | 1.22 | 93 | 1008.6 |
| 20260506192007 | 6 | 329 | 3.2 | 17.7 | 0.03 | 1.55 | 1.22 | 93 | 1008.6 |
| 20260506191527 | 6 | 313 | 9.7 | 16.1 | 0.03 | 1.55 | 1.22 | 92 | 1008.5 |
| 20260506191004 | 6 | 14 | 6.4 | 16.1 | 0.03 | 1.57 | 1.22 | 92 | 1008.4 |
| 20260506190505 | 6 | 344 | 9.7 | 16.1 | 0.05 | 1.57 | 1.22 | 92 | 1008.5 |
| 20260506190022 | 6 | 300 | 8.0 | 17.7 | 0.05 | 1.57 | 1.22 | 92 | 1008.5 |
| 20260506185507 | 6 | 342 | 6.4 | 19.3 | 0.03 | 1.55 | 1.19 | 92 | 1008.5 |
| 20260506185003 | 6 | 319 | 11.3 | 19.3 | 0.03 | 1.55 | 1.19 | 91 | 1008.5 |
| 20260506184517 | 6 | 340 | 9.7 | 17.7 | 0.03 | 1.55 | 1.19 | 92 | 1008.6 |
| 20260506184007 | 6 | 303 | 11.3 | 20.9 | 0.03 | 1.55 | 1.19 | 92 | 1008.5 |
| 20260506183504 | 6 | 340 | 9.7 | 20.9 | 0.03 | 1.55 | 1.19 | 92 | 1008.5 |
| 20260506183015 | 6 | 313 | 11.3 | 17.7 | 0.03 | 1.55 | 1.19 | 91 | 1008.2 |
| 20260506182508 | 7 | 347 | 11.3 | 19.3 | 0.03 | 1.55 | 1.19 | 91 | 1008.1 |
| 20260506182014 | 7 | 308 | 11.3 | 19.3 | 0.03 | 1.55 | 1.19 | 90 | 1008.0 |
| 20260506181512 | 7 | 344 | 9.7 | 19.3 | 0.03 | 1.55 | 1.19 | 90 | 1008.0 |
| 20260506181008 | 7 | 348 | 9.7 | 16.1 | 0.05 | 1.55 | 1.19 | 91 | 1007.9 |
| 20260506180510 | 7 | 27 | 8.0 | 16.1 | 0.03 | 1.52 | 1.17 | 91 | 1007.9 |
| 20260506180007 | 7 | 355 | 6.4 | 14.5 | 0.03 | 1.52 | 1.17 | 91 | 1008.0 |
| 20260506175505 | 7 | 335 | 6.4 | 12.9 | 0.03 | 1.52 | 1.17 | 91 | 1007.8 |
| 20260506175009 | 7 | 354 | 6.4 | 12.9 | 0.03 | 1.52 | 1.17 | 92 | 1007.7 |
| 20260506174527 | 6 | 283 | 3.2 | 16.1 | 0.03 | 1.52 | 1.17 | 91 | 1007.6 |
| 20260506174003 | 6 | 316 | 6.4 | 16.1 | 0.03 | 1.52 | 1.17 | 92 | 1007.6 |
| 20260506173507 | 6 | 335 | 8.0 | 14.5 | 0.03 | 1.52 | 1.17 | 91 | 1007.6 |
| 20260506173024 | 6 | 342 | 6.4 | 16.1 | 0.03 | 1.52 | 1.17 | 92 | 1007.5 |
| 20260506172503 | 6 | 331 | 4.8 | 16.1 | 0.03 | 1.52 | 1.17 | 92 | 1007.6 |
| 20260506172004 | 6 | 319 | 8.0 | 16.1 | 0.05 | 1.52 | 1.17 | 92 | 1007.5 |
| 20260506171525 | 6 | 355 | 6.4 | 12.9 | 0.05 | 1.52 | 1.17 | 92 | 1007.5 |
| 20260506171013 | 6 | 335 | 9.7 | 14.5 | 0.03 | 1.47 | 1.14 | 91 | 1007.5 |
| 20260506170502 | 6 | 314 | 6.4 | 16.1 | 0.03 | 1.47 | 1.14 | 92 | 1007.5 |
| 20260506170021 | 6 | 360 | 8.0 | 16.1 | 0.03 | 1.47 | 1.14 | 92 | 1007.5 |
| 20260506165507 | 6 | 345 | 8.0 | 16.1 | 0.03 | 1.47 | 1.14 | 92 | 1007.5 |
| 20260506165010 | 6 | 314 | 6.4 | 12.9 | 0.03 | 1.47 | 1.14 | 92 | 1007.5 |
| 20260506164516 | 6 | 333 | 4.8 | 14.5 | 0.03 | 1.47 | 1.14 | 92 | 1007.4 |
| 20260506164008 | 6 | 335 | 6.4 | 14.5 | 0.03 | 1.47 | 1.14 | 92 | 1007.4 |
| 20260506163512 | 6 | 328 | 4.8 | 12.9 | 0.03 | 1.47 | 1.14 | 92 | 1007.5 |
| 20260506163012 | 6 | 330 | 6.4 | 12.9 | 0.03 | 1.47 | 1.14 | 92 | 1007.5 |
| 20260506162506 | 6 | 354 | 4.8 | 11.3 | 0.05 | 1.47 | 1.14 | 92 | 1007.4 |
| 20260506162008 | 6 | 328 | 8.0 | 12.9 | 0.03 | 1.47 | 1.12 | 92 | 1007.5 |
| 20260506161530 | 6 | 351 | 6.4 | 12.9 | 0.05 | 1.47 | 1.12 | 92 | 1007.4 |
| 20260506161003 | 6 | 326 | 4.8 | 12.9 | 0.05 | 1.47 | 1.12 | 92 | 1007.4 |
| 20260506160511 | 6 | 328 | 6.4 | 11.3 | 0.08 | 1.47 | 1.12 | 92 | 1007.3 |
| 20260506160036 | 6 | 333 | 4.8 | 9.7 | 0.08 | 1.47 | 1.12 | 92 | 1007.3 |
| 20260506155503 | 6 | 338 | 4.8 | 16.1 | 0.08 | 1.47 | 1.12 | 92 | 1007.3 |
| 20260506155009 | 6 | 356 | 8.0 | 16.1 | 0.08 | 1.47 | 1.12 | 91 | 1007.3 |
| 20260506154526 | 6 | 311 | 6.4 | 12.9 | 0.08 | 1.47 | 1.12 | 92 | 1007.3 |
| 20260506154010 | 6 | 358 | 6.4 | 12.9 | 0.08 | 1.47 | 1.12 | 92 | 1007.3 |
| 20260506153504 | 6 | 307 | 6.4 | 12.9 | 0.10 | 1.47 | 1.12 | 92 | 1007.3 |
| 20260506153022 | 6 | 304 | 4.8 | 12.9 | 0.10 | 1.47 | 1.12 | 92 | 1007.4 |
| 20260506152511 | 6 | 342 | 4.8 | 9.7 | 0.08 | 1.45 | 1.09 | 92 | 1007.4 |
| 20260506152003 | 6 | 354 | 1.6 | 9.7 | 0.10 | 1.45 | 1.09 | 92 | 1007.4 |
| 20260506151520 | 6 | 335 | 3.2 | 9.7 | 0.08 | 1.42 | 1.07 | 92 | 1007.3 |
| 20260506151006 | 6 | 338 | 6.4 | 9.7 | 0.08 | 1.42 | 1.07 | 92 | 1007.4 |
| 20260506150510 | 6 | 328 | 3.2 | 6.4 | 0.05 | 1.40 | 1.04 | 93 | 1007.3 |
| 20260506150016 | 6 | 350 | 3.2 | 9.7 | 0.08 | 1.40 | 1.04 | 92 | 1007.2 |
| 20260506145508 | 6 | 356 | 4.8 | 11.3 | 0.08 | 1.40 | 1.04 | 92 | 1007.2 |
| 20260506145011 | 6 | 328 | 6.4 | 11.3 | 0.08 | 1.40 | 1.04 | 92 | 1007.1 |
| 20260506144512 | 6 | 318 | 4.8 | 11.3 | 0.08 | 1.40 | 1.04 | 92 | 1007.2 |
| 20260506144013 | 6 | 331 | 6.4 | 14.5 | 0.08 | 1.40 | 1.04 | 92 | 1007.1 |
| 20260506143516 | 6 | 328 | 8.0 | 14.5 | 0.05 | 1.37 | 1.02 | 92 | 1007.0 |
| 20260506143034 | 6 | 342 | 4.8 | 12.9 | 0.08 | 1.37 | 1.02 | 92 | 1007.2 |
| 20260506142504 | 6 | 349 | 4.8 | 12.9 | 0.08 | 1.37 | 1.02 | 92 | 1007.1 |
| 20260506142011 | 6 | 352 | 6.4 | 12.9 | 0.05 | 1.32 | 0.99 | 92 | 1006.9 |
| 20260506141528 | 6 | 332 | 6.4 | 11.3 | 0.08 | 1.32 | 0.99 | 92 | 1006.8 |
| 20260506141012 | 6 | 354 | 4.8 | 14.5 | 0.08 | 1.32 | 0.99 | 92 | 1006.9 |
| 20260506140507 | 6 | 345 | 8.0 | 14.5 | 0.10 | 1.32 | 0.99 | 92 | 1006.9 |
| 20260506140025 | 6 | 345 | 6.4 | 11.3 | 0.08 | 1.32 | 0.97 | 92 | 1007.1 |
| 20260506135510 | 6 | 263 | 4.8 | 9.7 | 0.10 | 1.32 | 0.97 | 92 | 1007.0 |
| 20260506135007 | 6 | 337 | 6.4 | 14.5 | 0.13 | 1.32 | 0.97 | 92 | 1006.9 |
| 20260506134525 | 6 | 325 | 6.4 | 14.5 | 0.15 | 1.32 | 0.97 | 91 | 1007.1 |
| 20260506134007 | 6 | 331 | 6.4 | 11.3 | 0.23 | 1.32 | 0.97 | 91 | 1007.1 |
| 20260506133512 | 6 | 322 | 4.8 | 9.7 | 0.25 | 1.32 | 0.97 | 92 | 1007.1 |
| 20260506133020 | 6 | 303 | 4.8 | 9.7 | 0.23 | 1.30 | 0.94 | 92 | 1007.1 |
| 20260506132509 | 6 | 328 | 6.4 | 9.7 | 0.28 | 1.30 | 0.94 | 92 | 1007.1 |
| 20260506132012 | 6 | 354 | 6.4 | 9.7 | 0.28 | 1.30 | 0.94 | 92 | 1007.1 |
| 20260506131536 | 6 | 328 | 4.8 | 8.0 | 0.28 | 1.27 | 0.91 | 92 | 1007.2 |
| 20260506131007 | 6 | 338 | 3.2 | 8.0 | 0.28 | 1.27 | 0.91 | 92 | 1007.2 |
| 20260506130509 | 6 | 346 | 3.2 | 8.0 | 0.28 | 1.24 | 0.89 | 92 | 1007.2 |
| 20260506130037 | 6 | 339 | 1.6 | 8.0 | 0.30 | 1.24 | 0.89 | 92 | 1007.1 |
| 20260506125507 | 6 | 328 | 3.2 | 9.7 | 0.30 | 1.22 | 0.86 | 92 | 1007.1 |
| 20260506125008 | 6 | 331 | 1.6 | 9.7 | 0.28 | 1.19 | 0.84 | 92 | 1007.1 |
| 20260506124527 | 6 | 283 | 6.4 | 9.7 | 0.28 | 1.17 | 0.81 | 92 | 1007.2 |
| 20260506124003 | 6 | 307 | 3.2 | 11.3 | 0.20 | 1.09 | 0.74 | 92 | 1007.2 |
| 20260506123508 | 6 | 329 | 6.4 | 11.3 | 0.20 | 1.07 | 0.71 | 92 | 1007.1 |
| 20260506123028 | 6 | 331 | 6.4 | 11.3 | 0.20 | 1.07 | 0.71 | 92 | 1007.1 |
| 20260506122509 | 6 | 311 | 6.4 | 11.3 | 0.15 | 1.02 | 0.66 | 92 | 1007.0 |
| 20260506122007 | 6 | 293 | 6.4 | 14.5 | 0.18 | 1.02 | 0.66 | 92 | 1007.0 |
| 20260506121527 | 6 | 298 | 6.4 | 14.5 | 0.18 | 0.99 | 0.64 | 92 | 1006.9 |
| 20260506121015 | 6 | 329 | 6.4 | 12.9 | 0.20 | 0.99 | 0.64 | 92 | 1006.9 |
| 20260506120514 | 7 | 334 | 6.4 | 11.3 | 0.18 | 0.97 | 0.61 | 91 | 1006.6 |
| 20260506120022 | 7 | 298 | 3.2 | 12.9 | 0.18 | 0.94 | 0.58 | 92 | 1006.7 |
| 20260506115507 | 7 | 285 | 6.4 | 12.9 | 0.15 | 0.91 | 0.56 | 92 | 1006.6 |
| 20260506115011 | 7 | 336 | 4.8 | 11.3 | 0.18 | 0.91 | 0.56 | 92 | 1006.8 |
| 20260506114522 | 7 | 340 | 0.0 | 8.0 | 0.18 | 0.89 | 0.53 | 94 | 1006.7 |
| 20260506114003 | 8 | 337 | 4.8 | 9.7 | 0.20 | 0.89 | 0.53 | 94 | 1006.6 |
| 20260506113504 | 8 | 41 | 1.6 | 9.7 | 0.20 | 0.86 | 0.51 | 94 | 1006.5 |
| 20260506113015 | 8 | 20 | 0.0 | 4.8 | 0.23 | 0.86 | 0.51 | 94 | 1006.4 |
| 20260506112505 | 8 | 239 | 3.2 | 4.8 | 0.23 | 0.86 | 0.51 | 94 | 1006.9 |
| 20260506112003 | 7 | 172 | 0.0 | 3.2 | 0.20 | 0.84 | 0.48 | 94 | 1006.5 |
| 20260506111513 | 7 | 173 | 0.0 | 3.2 | 0.20 | 0.81 | 0.46 | 94 | 1006.7 |
| 20260506111007 | 7 | 167 | 0.0 | 3.2 | 0.18 | 0.79 | 0.43 | 94 | 1006.7 |
| 20260506110506 | 7 | 167 | 0.0 | 3.2 | 0.18 | 0.79 | 0.43 | 94 | 1006.6 |
| 20260506110011 | 7 | 167 | 1.6 | 3.2 | 0.18 | 0.76 | 0.41 | 94 | 1006.6 |
| 20260506105507 | 7 | 167 | 1.6 | 3.2 | 0.20 | 0.76 | 0.41 | 93 | 1006.6 |
| 20260506105007 | 7 | 167 | 1.6 | 3.2 | 0.20 | 0.74 | 0.38 | 94 | 1006.5 |
| 20260506104503 | 7 | 158 | 0.0 | 3.2 | 0.20 | 0.71 | 0.36 | 93 | 1006.6 |
| 20260506104002 | 7 | 150 | 1.6 | 3.2 | 0.20 | 0.69 | 0.33 | 93 | 1006.6 |
| 20260506103506 | 7 | 143 | 1.6 | 3.2 | 0.18 | 0.66 | 0.30 | 93 | 1006.5 |
| 20260506103004 | 7 | 217 | 0.0 | 4.8 | 0.18 | 0.64 | 0.28 | 93 | 1006.5 |
| 20260506102505 | 7 | 220 | 3.2 | 14.5 | 0.18 | 0.64 | 0.28 | 93 | 1006.6 |
| 20260506102006 | 7 | 116 | 6.4 | 14.5 | 0.20 | 0.64 | 0.28 | 93 | 1006.7 |
| 20260506101523 | 7 | 100 | 3.2 | 4.8 | 0.18 | 0.61 | 0.25 | 93 | 1006.7 |
| 20260506101003 | 7 | 114 | 3.2 | 3.2 | 0.18 | 0.61 | 0.25 | 93 | 1006.7 |
| 20260506100508 | 7 | 297 | 0.0 | 1.6 | 0.20 | 0.61 | 0.25 | 93 | 1006.8 |
| 20260506100025 | 7 | 297 | 0.0 | 1.6 | 0.18 | 0.58 | 0.23 | 93 | 1006.8 |
| 20260506095507 | 7 | 304 | 0.0 | 8.0 | 0.15 | 0.56 | 0.20 | 93 | 1006.9 |
| 20260506095005 | 7 | 296 | 3.2 | 9.7 | 0.15 | 0.53 | 0.18 | 93 | 1006.9 |
| 20260506094518 | 7 | 1 | 6.4 | 9.7 | 0.13 | 0.51 | 0.15 | 93 | 1006.6 |
| 20260506094009 | 7 | 350 | 4.8 | 11.3 | 0.10 | 0.48 | 0.13 | 93 | 1006.7 |
| 20260506093503 | 7 | 333 | 6.4 | 11.3 | 0.10 | 0.48 | 0.13 | 93 | 1006.6 |
| 20260506093014 | 7 | 345 | 3.2 | 11.3 | 0.08 | 0.46 | 0.10 | 92 | 1006.9 |
| 20260506092510 | 7 | 328 | 8.0 | 11.3 | 0.08 | 0.46 | 0.10 | 92 | 1007.1 |
| 20260506092001 | 7 | 354 | 4.8 | 12.9 | 0.08 | 0.43 | 0.08 | 92 | 1007.1 |
| 20260506091511 | 7 | 343 | 6.4 | 12.9 | 0.08 | 0.43 | 0.08 | 92 | 1007.2 |
| 20260506091006 | 7 | 328 | 6.4 | 12.9 | 0.08 | 0.43 | 0.08 | 92 | 1007.5 |
| 20260506090505 | 7 | 333 | 6.4 | 11.3 | 0.05 | 0.41 | 0.05 | 92 | 1007.5 |
| 20260506090005 | 7 | 340 | 4.8 | 12.9 | 0.05 | 0.41 | 0.05 | 93 | 1007.5 |
| 20260506085508 | 7 | 360 | 8.0 | 14.5 | 0.05 | 0.41 | 0.05 | 93 | 1007.4 |
| 20260506085006 | 7 | 354 | 8.0 | 14.5 | 0.03 | 0.38 | 0.03 | 93 | 1007.5 |
| 20260506084525 | 7 | 315 | 8.0 | 11.3 | 0.03 | 0.38 | 0.03 | 93 | 1007.5 |
| 20260506084007 | 7 | 359 | 3.2 | 8.0 | 0.03 | 0.38 | 0.03 | 93 | 1007.3 |
| 20260506083508 | 7 | 340 | 0.0 | 3.2 | 0.03 | 0.38 | 0.03 | 93 | 1007.2 |
| 20260506083023 | 7 | 340 | 0.0 | 3.2 | 0.03 | 0.38 | 0.03 | 93 | 1007.2 |
| 20260506082503 | 7 | 338 | 1.6 | 3.2 | 0.03 | 0.38 | 0.03 | 93 | 1007.1 |
| 20260506082003 | 7 | 9 | 1.6 | 3.2 | 0.00 | 0.36 | 0.00 | 93 | 1007.0 |
| 20260506081526 | 7 | 8 | 0.0 | 3.2 | 0.00 | 0.36 | 0.00 | 93 | 1007.0 |
| 20260506081006 | 7 | 323 | 0.0 | 3.2 | 0.00 | 0.36 | 0.00 | 93 | 1007.1 |
| 20260506080503 | 7 | 245 | 1.6 | 3.2 | 0.00 | 0.36 | 0.00 | 93 | 1007.2 |
| 20260506073508 | 7 | 224 | 4.8 | 6.4 | 0.00 | 0.36 | 0.00 | 93 | 1007.0 |
| 20260506073009 | 7 | 204 | 4.8 | 6.4 | 0.00 | 0.36 | 0.00 | 93 | 1007.1 |
| 20260506072508 | 7 | 193 | 3.2 | 9.7 | 0.00 | 0.36 | 0.00 | 93 | 1007.2 |
| 20260506072011 | 7 | 214 | 3.2 | 9.7 | 0.00 | 0.36 | 0.00 | 93 | 1007.2 |
| 20260506071511 | 7 | 82 | 3.2 | 8.0 | 0.00 | 0.36 | 0.00 | 93 | 1006.9 |
| 20260506071007 | 7 | 238 | 3.2 | 8.0 | 0.00 | 0.36 | 0.00 | 93 | 1007.6 |